Weather History for Ottawa International, ON

Change the Weather History Date:

Sunday, October 14, 2012

  Actual Average Record
Temperature  
Mean Temperature 42 °F -  
Max Temperature 46 °F 48 °F 78 °F (2014)
Min Temperature 38 °F 32 °F 32 °F (2002)
Degree Days  
Heating Degree Days 24    
Moisture  
Dew Point 42 °F    
Average Humidity 97    
Maximum Humidity 100    
Minimum Humidity 92    
Precipitation  
Precipitation 0.31 in 0.11 in - ()
Sea Level Pressure  
Sea Level Pressure 29.88 in    
Wind  
Wind Speed 8 mph ()    
Max Wind Speed 13 mph    
Max Gust Speed 17 mph    
Visibility 3.1 miles    
Events Rain    
Averages and records for this station are not official NWS values.
T = Trace of Precipitation, MM = Missing Value Source: Averaged Metar Reports

Daily Weather History Graph

Daily Weather History Graph

Search for Another Location

Airport:

Trip Planner

Search our weather history database for the weather conditions in past years. The results will help you decide how hot, cold, wet, or windy it might be!

Date:

Astronomy

Oct. 14, 2012 Rise Set
Actual Time 7:18 AM EDT 6:18 PM EDT
Civil Twilight 6:48 AM EDT 6:48 PM EDT
Nautical Twilight 6:14 AM EDT 7:22 PM EDT
Astronomical Twilight 5:39 AM EDT 7:56 PM EDT
Moon 6:13 AM EDT (10/14) 5:36 PM EDT (10/14)
Length of Visible Light 11h 59m
Length of Day
11h 00m
Waning Crescent, 1% of the Moon is Illuminated
Oct 14
Waning Crescent
Oct 15
New
Oct 21
First Quarter
Oct 29
Full
Nov 6
Last Quarter

Hourly Weather History & Observations

Time (EDT) Temp. Windchill Dew Point Humidity Pressure Visibility Wind Dir Wind Speed Gust Speed Precip Events Conditions
12:00 AM 39.2 °F 32.5 °F 37.4 °F 93% 30.11 in 8.0 mi ESE 10.4 mph - N/A Rain Light Rain
1:00 AM 39.2 °F 32.0 °F 37.4 °F 93% 30.06 in 5.0 mi ESE 11.5 mph 17.3 mph N/A Rain Light Rain
2:00 AM 40 °F - 38 °F 92% 30.03 in 6 mi ESE 9.2 mph - - Rain Light Rain
2:00 AM 39.2 °F 33.0 °F 39.2 °F 100% 30.03 in 6.0 mi SE 9.2 mph - N/A Rain Light Rain
3:00 AM 39.2 °F 33.6 °F 39.2 °F 100% 29.99 in 5.0 mi ESE 8.1 mph - N/A Rain Light Rain
4:00 AM 41.0 °F 35.2 °F 39.2 °F 93% 29.96 in 5.0 mi ESE 9.2 mph - N/A Rain Light Rain
5:00 AM 41.0 °F 35.8 °F 39.2 °F 93% 29.95 in 5.0 mi ESE 8.1 mph - N/A Rain Light Rain
6:00 AM 41.0 °F 36.4 °F 39.2 °F 93% 29.95 in 6.0 mi East 6.9 mph - N/A Rain Light Rain
6:38 AM 41.0 °F 35.2 °F 41.0 °F 100% 29.95 in 3.0 mi East 9.2 mph - N/A   Light Drizzle
7:00 AM 41.0 °F 37.1 °F 41.0 °F 100% 29.96 in 3.0 mi East 5.8 mph - N/A   Light Drizzle
7:38 AM 41.0 °F 35.8 °F 41.0 °F 100% 29.95 in 2.0 mi East 8.1 mph - N/A   Light Drizzle
8:00 AM 41 °F - 41 °F 99% 29.95 in 1 mi East 8.1 mph - - Rain Light Drizzle
8:00 AM 41.0 °F 35.8 °F 41.0 °F 100% 29.95 in 1.5 mi East 8.1 mph - N/A   Light Drizzle
9:00 AM 42.8 °F 38.0 °F 41.0 °F 93% 29.95 in 1.5 mi East 8.1 mph - N/A   Light Drizzle
9:49 AM 42.8 °F 38.6 °F 41.0 °F 93% 29.97 in 1.0 mi East 6.9 mph - N/A   Light Drizzle
10:00 AM 42.8 °F 38.0 °F 41.0 °F 93% 29.96 in 0.8 mi East 8.1 mph - N/A   Light Drizzle
11:00 AM 42.8 °F 37.5 °F 42.8 °F 100% 29.95 in 0.8 mi East 9.2 mph - N/A   Light Drizzle
12:00 PM 44.6 °F 39.2 °F 44.6 °F 100% 29.94 in 1.0 mi East 10.4 mph - N/A   Light Drizzle
1:00 PM 44.6 °F 39.7 °F 44.6 °F 100% 29.91 in 1.0 mi East 9.2 mph - N/A Rain Light Rain
1:36 PM 44.6 °F 40.2 °F 44.6 °F 100% 29.89 in 2.0 mi East 8.1 mph - N/A Rain Light Rain
2:00 PM 46 °F - 45 °F 95% 29.88 in 2 mi East 8.1 mph - - Rain Light Rain
2:00 PM 46.4 °F 42.4 °F 44.6 °F 93% 29.88 in 2.0 mi ENE 8.1 mph - N/A Rain Light Rain
2:27 PM 46.4 °F 42.4 °F 44.6 °F 93% 29.87 in 3.0 mi ENE 8.1 mph - N/A Rain Light Rain
3:00 PM 46.4 °F 41.1 °F 44.6 °F 93% 29.85 in 4.0 mi East 11.5 mph - N/A Rain Light Rain
3:27 PM 46.4 °F 41.9 °F 44.6 °F 93% 29.84 in 1.5 mi East 9.2 mph - N/A Rain Light Rain
4:00 PM 46.4 °F 42.4 °F 44.6 °F 93% 29.84 in 2.0 mi ENE 8.1 mph - N/A Rain Light Rain
4:28 PM 44.6 °F 39.7 °F 44.6 °F 100% 29.82 in 5.0 mi ENE 9.2 mph - N/A Rain Light Rain
5:00 PM 44.6 °F 40.2 °F 42.8 °F 93% 29.80 in 5.0 mi ENE 8.1 mph - N/A   Light Drizzle
6:00 PM 42.8 °F 36.6 °F 42.8 °F 100% 29.78 in 4.0 mi East 11.5 mph - N/A   Light Drizzle
6:35 PM 42.8 °F 36.2 °F 42.8 °F 100% 29.77 in 4.0 mi East 12.7 mph - N/A   Overcast
7:00 PM 42.8 °F 37.0 °F 42.8 °F 100% 29.77 in 4.0 mi ENE 10.4 mph - N/A   Overcast
8:00 PM 43 °F - 43 °F 100% 29.73 in 3 mi East 11.5 mph - -   Mist
8:00 PM 42.8 °F 37.0 °F 42.8 °F 100% 29.73 in 3.0 mi East 10.4 mph - N/A   Overcast
8:32 PM 44.6 °F 39.2 °F 42.8 °F 93% 29.72 in 1.5 mi East 10.4 mph - N/A   Overcast
8:41 PM 44.6 °F 39.2 °F 44.6 °F 100% 29.71 in 1.5 mi East 10.4 mph - N/A Rain Light Rain
9:00 PM 44.6 °F 40.7 °F 44.6 °F 100% 29.70 in 2.0 mi ENE 6.9 mph - N/A   Overcast
10:00 PM 44.6 °F 39.7 °F 44.6 °F 100% 29.69 in 2.0 mi East 9.2 mph - N/A Rain Light Rain
11:00 PM 46.4 °F 42.4 °F 44.6 °F 93% 29.67 in 2.5 mi East 8.1 mph - N/A Rain Light Rain